Terminal Aerodrome Forecast
Issued by NWS Mt. Holly, NJ

Home | Current Version | Previous Version | Text Only | Print | Product List | Glossary On
Versions: 1 2 3 4 5 6 7 8 9 10 11 12 13 14 15 16 17 18 19 20 21 22 23 24 25 26 27 28 29 30 31 32 33 34 35 36
000
FTAK31 PANC 111518 AAA
TAFABE
TAF AMD
PABE 111518Z 1115/1212 36015KT P6SM SCT009 BKN050
      TEMPO 1115/1118 BKN009
     FM112100 02010KT P6SM BKN040
     FM120000 07007KT P6SM SCT025 OVC040=

USA.gov is the U.S. government's official web portal to all federal, state and local government web resources and services.